Regional Weather Roundup
Issued by NWS State College, PA

Home | Current Version | Previous Version | Graphics & Text | Print | Product List | Glossary Off
Versions: 1 2 3 4 5 6 7 8 9 10 11 12 13 14 15 16 17 18 19 20 21 22 23 24 25 26 27 28 29 30 31 32 33 34 35 36 37 38 39 40 41 42 43 44 45 46 47 48 49 50

000
ASUS41 KCTP 261910
RWRCTP

REGIONAL WEATHER ROUNDUP
NATIONAL WEATHER SERVICE STATE COLLEGE PA
200 PM EST THU FEB 26 2015

Note: "fair" indicates few or no clouds below 12,000 feet with no
significant weather and/or obstructions to visibility.

* = STATION THAT DOES NOT REPORT PRECIPITATION /E.G. RAIN...SNOW...ETC/
    THUNDER OR FOG.

PAZ002>004-007>009-013>016-020>023-029>032-262000-
WESTERN PENNSYLVANIA

CITY           SKY/WX    TMP DP  RH WIND       PRES   REMARKS
ERIE           LGT SNOW  13   7  77 N13       30.07S VSB 3/4 WCI  -2
MEADVILLE      LGT SNOW  13   6  74 N12       29.96S WCI  -1
FRANKLIN*      CLOUDY    16  10  79 N5        29.95R VSB 3/4 WCI   9
NEW CASTLE     LGT SNOW  14  10  85 NW9       30.01R FOG     WCI   2
BEAVER COUNTY  LGT SNOW  18  12  79 N7        29.97R WCI   8
BUTLER*        CLOUDY    19  14  79 N7        29.96R VSB 1   WCI  10
PITTSBURGH INT LGT SNOW  19  14  81 NW10      29.95S WCI   7
PITTSBURGH     LGT SNOW  23  13  65 NW12      29.93R WCI  12
INDIANA*       HAZE      27  21  80 N6        29.93R VSB 1
LATROBE        LGT SNOW  28  23  80 NW7       29.93R
WASHINGTON CO* CLOUDY    23  14  68 NW7       29.96R WCI  15
$$

PAZ004>006-010>012-017>019-024>028-033>037-041-042-045-046-049>053-262000-
CENTRAL PENNSYLVANIA

CITY           SKY/WX    TMP DP  RH WIND       PRES   REMARKS
BRADFORD       LGT SNOW  17   8  67 NW8       29.86S WCI   7
DUBOIS         LGT SNOW  21  14  74 CALM      29.87R VSB 1
CLEARFIELD     LGT SNOW  25  13  60 CALM      29.89R
JOHNSTOWN      LGT SNOW  26  17  68 W6        29.81R
ALTOONA        CLOUDY    25  12  58 CALM      29.88S
STATE COLLEGE  FLURRIES  23  10  58 NE3       29.91S
WILLIAMSPORT   MOSUNNY   24   6  46 SW3       29.96S
SELINSGROVE    MOSUNNY   24  12  60 N6        29.97S
FT INDIANTOWN  PTSUNNY   29  16  57 N7        29.92S
CAPITAL CITY   CLOUDY    30  16  56 NW6       29.93F
HARRISBURG     CLOUDY    35  16  45 NE5       29.93F
YORK           MOSUNNY   29  17  61 N6        29.92S
$$

PAZ038>040-043-044-047-048-054-055-060>062-067>071-262000-
EASTERN PENNSYLVANIA

CITY           SKY/WX    TMP DP  RH WIND       PRES   REMARKS
SCRANTON       FLURRIES  23  11  60 NW9       29.91S WCI  13
MOUNT POCONO   MIX PCPN  22  11  62 N10       29.81F WCI  11
ALLENTOWN      CLOUDY    25  14  63 N9        29.93F
QUAKERTOWN*    CLOUDY    25  16  68 N9        29.92R
READING        MIX PCPN  27  16  63 N9        29.93R
LANCASTER      SUNNY     28  17  63 N7        29.92R
COATESVILLE    MOCLDY    28  19  69 N12       29.89S
POTTSTOWN      CLOUDY    28  17  63 N10       29.93S
BLUE BELL      SUNNY     32  19  59 N6        29.89S
DOYLESTOWN     CLOUDY    28  16  60 NE9       29.89F
WILLOW GROVE   NOT AVBL
NORTH PHILA    CLOUDY    31  13  47 N12       29.92F
PHILADELPHIA   CLOUDY    32  14  47 N12       29.91S
$$



USA.gov is the U.S. government's official web portal to all federal, state and local government web resources and services.